Weather in Nakhichevan

Azerbaijan     39˚13′15″N   45˚24′27″E
temp.,
°C
wind,
m/s
gust,
m/s
humid.,
%
clouds,
%
prec.,
mm/h
press.,
hPa
HPBL,
m
28 november, sat
sat2801:00+1˚sse11590 0.0 103422
04:00sse116610 0.0 103322
07:00−1˚ssw016660 0.0 103322
10:00+4˚s004537 0.0 1033133
13:00+7˚w213681 0.0 1030507
16:00+7˚wsw213491 0.0 1028554
19:00+4˚wnw114499 0.0 102922
22:00+3˚sw114796 0.0 102922
29 november, sun
sun2901:00+2˚nne115146 0.0 102822
04:00sse015850 0.0 102822
07:00s1159100 0.0 102722
10:00+4˚wsw0045100 0.0 1028111
13:00+7˚sw113660 0.0 1024509
16:00+7˚wsw113480 0.0 1023510
19:00+6˚ssw2237100 0.0 102595
22:00+4˚s2277100 0.2 1026270
30 november, mon
mon3001:00+3˚s1293100 0.1 1025165
04:00+3˚sw0192100 0.1 1025139
07:00+4˚s1185100 0.0 1024210
10:00+4˚sse227999 0.1 1025293
13:00+7˚s116390 0.0 1022694
16:00+8˚sw115465 0.0 1021839
19:00+5˚nnw11690 0.0 102222
22:00+4˚ene11722 0.0 102322
1 december, tue
tue101:00+3˚ese11724 0.0 102322
04:00+2˚ese11799 0.0 102222
07:00+1˚s118416 0.0 102222
10:00+6˚sse016229 0.0 1023114
13:00+9˚wsw115119 0.0 1021607
16:00+10˚w11479 0.0 1020857
19:00+6˚n12610 0.0 102222
22:00+5˚ene11657 0.0 102322
2 december, wed
wed201:00+4˚sse01710 0.0 102422
04:00+3˚se11780 0.0 102422
07:00+2˚ssw018018 0.0 102422
10:00+7˚sse115711 0.0 102494
13:00+9˚sw114876 0.0 1022566
16:00+10˚wsw114685 0.0 1021632
19:00+6˚wnw0163100 0.0 102222
22:00+4˚sse116892 0.0 102422